Location: The Saddle
(36.8333°N, 80.3417°W)
Time: 07:07:35
(UTC-05:00)

Vanguard 2 Rocket - Pass Details

Date: 14 December 2023
Orbit: 555 x 3309 km, 32.9° (Epoch: 02 March)

Event Time Altitude Azimuth Distance (km) Brightness Sun altitude
Rises 11:55:03 0° 236° (WSW) 4,547 10.8 29.7°
Reaches altitude 10° 11:57:37 10° 233° (SW) 3,860 10.6 29.8°
Maximum altitude 12:08:18 60° 156° (SSE) 2,606 10.3 29.9°
Drops below altitude 10° 12:25:56 10° 83° (E) 6,078 11.1 29.9°
Sets 12:31:09 0° 80° (E) 7,247 11.4 29.8°
